Time,TemperatureF,DewpointF,PressureIn,WindDirection,WindDirectionDegrees,WindSpeedMPH,WindSpeedGustMPH,Humidity,HourlyPrecipIn,Conditions,Clouds,dailyrainin,SoftwareType,DateUTC
2013-03-05 00:00:00,44.0,-99.9,-100.00,NNW,340,1.0,-999.0,-999,-99.99,,,-99.99,,2013-03-05 08:00:00,
2013-03-05 01:00:00,44.0,-99.9,-100.00,NNW,344,1.0,-999.0,-999,-99.99,,,-99.99,,2013-03-05 09:00:00,
2013-03-05 01:52:00,44.0,-99.9,-100.00,NNW,344,1.0,-999.0,-999,-99.99,,,-99.99,,2013-03-05 09:52:00,
2013-03-05 03:00:00,44.0,-99.9,-100.00,NNE,13,1.0,-999.0,-999,-99.99,,,-99.99,,2013-03-05 11:00:00,
2013-03-05 04:00:00,44.0,-99.9,-100.00,NNW,344,1.0,-999.0,-999,-99.99,,,-99.99,,2013-03-05 12:00:00,
2013-03-05 05:00:00,45.0,-99.9,-100.00,NNW,343,1.0,-999.0,-999,-99.99,,,-99.99,,2013-03-05 13:00:00,
2013-03-05 06:00:00,45.0,-99.9,-100.00,NNW,343,1.0,-999.0,-999,-99.99,,,-99.99,,2013-03-05 14:00:00,
2013-03-05 07:00:00,45.0,-99.9,-100.00,NW,321,2.0,-999.0,-999,-99.99,,,-99.99,,2013-03-05 15:00:00,
2013-03-05 08:00:00,45.0,-99.9,-100.00,NW,321,2.0,-999.0,-999,-99.99,,,-99.99,,2013-03-05 16:00:00,
2013-03-05 09:00:00,46.0,-99.9,-100.00,NW,320,3.0,-999.0,-999,-99.99,,,-99.99,,2013-03-05 17:00:00,
2013-03-05 10:00:00,47.0,-99.9,-100.00,NNW,328,3.0,-999.0,-999,-99.99,,,-99.99,,2013-03-05 18:00:00,
2013-03-05 11:00:00,49.0,-99.9,-100.00,NNW,340,3.0,-999.0,-999,-99.99,,,-99.99,,2013-03-05 19:00:00,
2013-03-05 12:00:00,51.0,-99.9,-100.00,NNW,332,3.0,-999.0,-999,-99.99,,,-99.99,,2013-03-05 20:00:00,
2013-03-05 13:00:00,50.0,-99.9,-100.00,NW,320,5.0,-999.0,-999,-99.99,,,-99.99,,2013-03-05 21:00:00,
2013-03-05 14:00:00,50.0,-99.9,-100.00,NW,319,6.0,-999.0,-999,-99.99,,,-99.99,,2013-03-05 22:00:00,
2013-03-05 15:00:00,50.0,-99.9,-100.00,NW,324,5.0,-999.0,-999,-99.99,,,-99.99,,2013-03-05 23:00:00,
2013-03-05 15:53:00,50.0,-99.9,-100.00,NW,324,5.0,-999.0,-999,-99.99,,,-99.99,,2013-03-05 23:53:00,
2013-03-05 16:00:00,49.0,-99.9,-100.00,WNW,302,2.0,-999.0,-999,-99.99,,,-99.99,,2013-03-06 00:00:00,
2013-03-05 17:00:00,49.0,-99.9,-100.00,NW,325,3.0,-999.0,-999,-99.99,,,-99.99,,2013-03-06 01:00:00,
2013-03-05 17:52:00,49.0,-99.9,-100.00,NW,325,3.0,-999.0,-999,-99.99,,,-99.99,,2013-03-06 01:52:00,
2013-03-05 18:00:00,47.0,-99.9,-100.00,NW,321,6.0,-999.0,-999,-99.99,,,-99.99,,2013-03-06 02:00:00,
2013-03-05 19:00:00,46.0,-99.9,-100.00,NW,321,5.0,-999.0,-999,-99.99,,,-99.99,,2013-03-06 03:00:00,
2013-03-05 20:00:00,45.0,-99.9,-100.00,NW,322,5.0,-999.0,-999,-99.99,,,-99.99,,2013-03-06 04:00:00,
2013-03-05 21:00:00,44.0,-99.9,-100.00,NW,326,5.0,-999.0,-999,-99.99,,,-99.99,,2013-03-06 05:00:00,
2013-03-05 21:52:00,44.0,-99.9,-100.00,NW,326,5.0,-999.0,-999,-99.99,,,-99.99,,2013-03-06 05:52:00,
2013-03-05 22:00:00,44.0,-99.9,-100.00,NNW,327,5.0,-999.0,-999,-99.99,,,-99.99,,2013-03-06 06:00:00,
2013-03-05 22:52:00,44.0,-99.9,-100.00,NNW,327,5.0,-999.0,-999,-99.99,,,-99.99,,2013-03-06 06:52:00,
2013-03-05 23:00:00,44.0,-99.9,-100.00,NNW,336,5.0,-999.0,-999,-99.99,,,-99.99,,2013-03-06 07:00:00,